TimePDT,TemperatureF,Dew PointF,Humidity,Sea Level PressureIn,VisibilityMPH,Wind Direction,Wind SpeedMPH,Gust SpeedMPH,PrecipitationIn,Events,Conditions,WindDirDegrees,DateUTC
12:35 AM,44.6,44.6,100,30.20,3.0,Calm,Calm,-,0.03,,Overcast,0,2012-10-25 07:35:00
12:55 AM,44.6,44.6,100,30.21,3.0,Calm,Calm,-,0.05,,Overcast,0,2012-10-25 07:55:00
1:15 AM,42.8,42.8,100,30.22,5.0,ENE,3.5,-,0.01,,Overcast,70,2012-10-25 08:15:00
1:35 AM,42.8,42.8,100,30.23,7.0,NE,4.6,-,0.02,,Mostly Cloudy,50,2012-10-25 08:35:00
1:55 AM,42.8,42.8,100,30.23,10.0,NE,3.5,-,0.02,,Overcast,50,2012-10-25 08:55:00
2:15 AM,42.8,42.8,100,30.24,10.0,NE,4.6,-,0.00,,Overcast,50,2012-10-25 09:15:00
2:35 AM,42.8,42.8,100,30.24,10.0,NE,4.6,-,0.00,,Overcast,50,2012-10-25 09:35:00
2:55 AM,42.8,42.8,100,30.25,10.0,ENE,3.5,-,0.00,,Overcast,60,2012-10-25 09:55:00
3:15 AM,42.8,42.8,100,30.26,10.0,NE,3.5,-,0.01,,Overcast,40,2012-10-25 10:15:00
3:35 AM,42.8,42.8,100,30.26,10.0,NE,3.5,-,0.01,,Overcast,50,2012-10-25 10:35:00
3:55 AM,42.8,42.8,100,30.27,10.0,NNE,3.5,-,0.01,,Overcast,20,2012-10-25 10:55:00
4:15 AM,42.8,42.8,100,30.27,10.0,Calm,Calm,-,0.00,,Overcast,0,2012-10-25 11:15:00
4:35 AM,42.8,42.8,100,30.28,10.0,NNE,4.6,-,0.00,,Overcast,30,2012-10-25 11:35:00
4:55 AM,42.8,42.8,100,30.29,10.0,Calm,Calm,-,0.00,,Overcast,0,2012-10-25 11:55:00
5:15 AM,42.8,42.8,100,30.29,10.0,NNE,4.6,-,0.00,,Overcast,30,2012-10-25 12:15:00
5:35 AM,42.8,42.8,100,30.30,10.0,NNE,4.6,-,0.00,,Overcast,30,2012-10-25 12:35:00
5:55 AM,42.8,42.8,100,30.30,10.0,NE,5.8,-,0.00,,Overcast,40,2012-10-25 12:55:00
6:15 AM,42.8,42.8,100,30.32,10.0,NNE,4.6,-,0.00,,Overcast,30,2012-10-25 13:15:00
6:55 AM,42.8,42.8,100,30.33,10.0,NNE,4.6,-,0.00,,Overcast,30,2012-10-25 13:55:00
7:15 AM,42.8,42.8,100,30.34,10.0,NNE,3.5,-,0.00,,Overcast,20,2012-10-25 14:15:00
7:35 AM,42.8,42.8,100,30.35,10.0,NNE,3.5,-,0.00,,Overcast,30,2012-10-25 14:35:00
7:55 AM,42.8,42.8,100,30.35,10.0,NNE,3.5,-,0.00,,Overcast,20,2012-10-25 14:55:00
8:15 AM,42.8,42.8,100,30.36,10.0,NE,5.8,-,0.00,,Overcast,40,2012-10-25 15:15:00
8:55 AM,42.8,42.8,100,30.38,10.0,ENE,4.6,-,0.00,,Mostly Cloudy,60,2012-10-25 15:55:00
9:15 AM,44.6,44.6,100,30.38,10.0,ENE,4.6,-,0.00,,Overcast,70,2012-10-25 16:15:00
9:35 AM,44.6,44.6,100,30.38,10.0,East,4.6,-,0.00,,Mostly Cloudy,90,2012-10-25 16:35:00
9:55 AM,46.4,46.4,100,30.40,10.0,East,4.6,-,0.00,,Scattered Clouds,90,2012-10-25 16:55:00
10:15 AM,46.4,46.4,100,30.40,10.0,Calm,Calm,-,0.00,,Mostly Cloudy,0,2012-10-25 17:15:00
10:35 AM,46.4,46.4,100,30.41,10.0,Calm,Calm,-,0.00,,Overcast,0,2012-10-25 17:35:00
11:15 AM,48.2,46.4,93,30.42,10.0,SSE,3.5,-,0.00,,Mostly Cloudy,150,2012-10-25 18:15:00
11:35 AM,48.2,46.4,93,30.43,10.0,Calm,Calm,-,0.00,,Mostly Cloudy,0,2012-10-25 18:35:00
11:55 AM,48.2,46.4,93,30.42,10.0,NE,3.5,-,0.00,,Mostly Cloudy,50,2012-10-25 18:55:00
12:15 PM,50.0,46.4,87,30.43,10.0,North,4.6,-,0.00,,Overcast,10,2012-10-25 19:15:00
12:35 PM,51.8,46.4,82,30.42,10.0,NE,4.6,-,0.00,,Mostly Cloudy,40,2012-10-25 19:35:00
12:55 PM,50.0,44.6,82,30.43,10.0,South,4.6,-,0.00,,Overcast,180,2012-10-25 19:55:00
1:15 PM,50.0,44.6,82,30.43,10.0,Calm,Calm,-,0.00,,Overcast,0,2012-10-25 20:15:00
1:35 PM,51.8,44.6,76,30.43,10.0,Calm,Calm,-,0.00,,Overcast,0,2012-10-25 20:35:00
1:55 PM,51.8,46.4,82,30.43,10.0,SSW,3.5,-,0.00,,Overcast,200,2012-10-25 20:55:00
2:15 PM,51.8,44.6,76,30.42,10.0,SSE,3.5,-,0.00,,Overcast,150,2012-10-25 21:15:00
2:35 PM,51.8,46.4,82,30.42,10.0,East,6.9,-,0.00,,Mostly Cloudy,80,2012-10-25 21:35:00
2:55 PM,51.8,44.6,76,30.41,10.0,East,5.8,-,0.00,,Mostly Cloudy,90,2012-10-25 21:55:00
3:15 PM,51.8,44.6,76,30.42,10.0,ESE,3.5,-,0.00,,Scattered Clouds,120,2012-10-25 22:15:00
3:35 PM,51.8,44.6,76,30.42,10.0,South,3.5,-,0.00,,Partly Cloudy,190,2012-10-25 22:35:00
3:55 PM,51.8,44.6,76,30.42,10.0,ESE,4.6,-,0.00,,Mostly Cloudy,120,2012-10-25 22:55:00
4:15 PM,51.8,44.6,76,30.42,7.0,East,4.6,-,0.00,,Scattered Clouds,90,2012-10-25 23:15:00
4:35 PM,51.8,44.6,76,30.42,10.0,Calm,Calm,-,0.00,,Scattered Clouds,0,2012-10-25 23:35:00
4:55 PM,51.8,44.6,76,30.42,10.0,Calm,Calm,-,0.00,,Scattered Clouds,0,2012-10-25 23:55:00
5:15 PM,50.0,46.4,87,30.42,10.0,SSW,4.6,-,0.00,,Partly Cloudy,210,2012-10-26 00:15:00
5:35 PM,48.2,46.4,93,30.42,10.0,Calm,Calm,-,0.00,,Mostly Cloudy,0,2012-10-26 00:35:00
6:15 PM,46.4,46.4,100,30.41,10.0,Calm,Calm,-,0.00,,Clear,0,2012-10-26 01:15:00
6:35 PM,46.4,46.4,100,30.41,10.0,NE,3.5,-,0.00,,Clear,50,2012-10-26 01:35:00
6:55 PM,46.4,44.6,93,30.40,10.0,ENE,3.5,-,0.00,,Clear,60,2012-10-26 01:55:00
7:15 PM,46.4,44.6,93,30.41,10.0,Calm,Calm,-,0.00,,Clear,0,2012-10-26 02:15:00
7:35 PM,46.4,44.6,93,30.40,10.0,Calm,Calm,-,0.00,,Clear,0,2012-10-26 02:35:00
7:55 PM,46.4,44.6,93,30.40,10.0,NE,4.6,-,0.00,,Clear,50,2012-10-26 02:55:00
8:15 PM,46.4,44.6,93,30.40,10.0,NE,4.6,-,0.00,,Clear,40,2012-10-26 03:15:00
8:35 PM,46.4,44.6,93,30.40,10.0,NE,4.6,-,0.00,,Clear,40,2012-10-26 03:35:00
9:15 PM,46.4,42.8,87,30.39,10.0,ENE,3.5,-,0.00,,Clear,60,2012-10-26 04:15:00
9:35 PM,46.4,42.8,87,30.38,10.0,ENE,5.8,-,0.00,,Clear,60,2012-10-26 04:35:00
9:55 PM,46.4,42.8,87,30.38,10.0,ENE,3.5,-,0.00,,Clear,60,2012-10-26 04:55:00
10:15 PM,44.6,42.8,93,30.37,10.0,Calm,Calm,-,0.00,,Clear,0,2012-10-26 05:15:00
10:35 PM,46.4,42.8,87,30.37,10.0,ENE,6.9,-,0.00,,Scattered Clouds,70,2012-10-26 05:35:00
10:55 PM,46.4,42.8,87,30.36,10.0,ENE,9.2,-,0.00,,Scattered Clouds,70,2012-10-26 05:55:00
11:15 PM,46.4,42.8,87,30.35,10.0,East,8.1,-,0.00,,Partly Cloudy,80,2012-10-26 06:15:00
11:35 PM,44.6,42.8,93,30.35,10.0,ENE,6.9,-,0.00,,Clear,70,2012-10-26 06:35:00
11:55 PM,44.6,42.8,93,30.35,10.0,ENE,9.2,-,0.00,,Clear,60,2012-10-26 06:55:00